This demonstration page uses our WeatherBlox Daily Observations layout. Learn more.

Hourly Observations for May 7, 2016

Temp ( °F °C ) Dew Point ( °F °C ) Humidity (%) Winds ( mph kmh ) Pressure ( in mb ) Visibility ( mi km ) Precip ( " mm )
12:15 am 00:15 Cloudy with Mist and Fog 52 11 52 11 100 100 NW 6 9 29.74 1007 4 6.43736 0 0
12:35 am 00:35 Cloudy 52 11 52 11 100 100 NW 9 15 29.74 1007 10 16.0934 0 0
12:55 am 00:55 Cloudy 52 11 52 11 100 100 NNW 8 13 29.74 1007 7 11.26538 0 0
1:15 am 01:15 Cloudy 52 11 52 11 100 100 NW 8 13 29.74 1007 10 16.0934 0 0
1:35 am 01:35 Cloudy 52 11 52 11 100 100 NNW 7 11 29.74 1007 10 16.0934 0 0
1:55 am 01:55 Cloudy 52 11 52 11 100 100 NNW 8 13 29.74 1007 10 16.0934 0 0
2:15 am 02:15 Cloudy 52 11 52 11 100 100 N 8 13 29.74 1007 10 16.0934 0 0
2:35 am 02:35 Cloudy 52 11 52 11 100 100 N 6 9 29.74 1007 10 16.0934 0 0
2:55 am 02:55 Cloudy 50 10 50 10 100 100 N 6 9 29.74 1007 10 16.0934 0 0
3:10 am 03:10 Mostly Cloudy 50 10 50 10 100 100 N 7 11 29.74 1007 10 16.0934 0 0
3:35 am 03:35 Mostly Cloudy 50 10 50 10 100 100 N 6 9 29.77 1008 10 16.0934 0 0
3:55 am 03:55 Cloudy 50 10 50 10 100 100 NNW 3 6 29.77 1008 10 16.0934 0 0
4:15 am 04:15 Cloudy 50 10 50 10 100 100 NNW 5 7 29.77 1008 10 16.0934 0 0
4:35 am 04:35 Cloudy 50 10 50 10 100 100 N 3 6 29.77 1008 10 16.0934 0 0
4:55 am 04:55 Cloudy 50 10 50 10 100 100 N 3 6 29.77 1008 10 16.0934 0 0
5:15 am 05:15 Cloudy 50 10 50 10 100 100 N 3 6 29.77 1008 10 16.0934 0 0
5:35 am 05:35 Cloudy 50 10 50 10 100 100 NNW 5 7 29.77 1008 7 11.26538 0 0
5:55 am 05:55 Cloudy 50 10 50 10 100 100 NNW 3 6 29.77 1008 10 16.0934 0 0
6:15 am 06:15 Cloudy 50 10 50 10 100 100 Calm 29.77 1008 10 16.0934 0 0
6:35 am 06:35 Cloudy 50 10 50 10 100 100 WNW 3 6 29.77 1008 10 16.0934 0 0
6:55 am 06:55 Cloudy 50 10 50 10 100 100 Calm 29.8 1009 10 16.0934 0 0
7:15 am 07:15 Mostly Cloudy 50 10 50 10 100 100 Calm 29.8 1009 10 16.0934 0 0
7:35 am 07:35 Mostly Cloudy 52 11 52 11 100 100 NW 3 6 29.8 1009 10 16.0934 0 0
7:55 am 07:55 Partly Cloudy 54 12 52 11 94 94 NNW 6 9 29.8 1009 10 16.0934 0 0
8:15 am 08:15 Partly Cloudy 54 12 52 11 94 94 N 3 6 29.8 1009 10 16.0934 0 0
8:35 am 08:35 Partly Cloudy 55 13 54 12 94 94 NW 7 11 29.8 1009 10 16.0934 0 0
8:55 am 08:55 Cloudy 55 13 52 11 88 88 NW 8 13 29.8 1009 10 16.0934 0 0
9:15 am 09:15 Mostly Cloudy 55 13 52 11 88 88 N 5 7 29.8 1009 10 16.0934 0 0
9:35 am 09:35 Mostly Cloudy 57 14 52 11 82 82 NNE 6 9 29.8 1009 10 16.0934 0 0
9:55 am 09:55 Cloudy 57 14 52 11 82 82 NNW 8 13 29.8 1009 10 16.0934 0 0
10:15 am 10:15 Cloudy 55 13 52 11 88 88 N 7 11 29.8 1009 10 16.0934 0 0
10:35 am 10:35 Cloudy 59 15 52 11 77 77 N 7 11 29.8 1009 10 16.0934 0 0
10:55 am 10:55 Cloudy 59 15 52 11 77 77 NNW 5 7 29.8 1009 10 16.0934 0 0
11:15 am 11:15 Cloudy 59 15 52 11 77 77 NNW 8 13 29.8 1009 10 16.0934 0 0
11:35 am 11:35 Cloudy 59 15 52 11 77 77 NNW 6 9 29.8 1009 10 16.0934 0 0
11:55 am 11:55 Mostly Cloudy 61 16 52 11 72 72 WNW 9 15 29.8 1009 10 16.0934 0 0
12:15 pm 12:15 Mostly Cloudy 59 15 52 11 77 77 NW 9 15 29.8 1009 10 16.0934 0 0
12:35 pm 12:35 Cloudy 61 16 50 10 68 68 NNW 5 7 29.8 1009 10 16.0934 0 0
12:55 pm 12:55 Cloudy 61 16 50 10 68 68 NNW 5 7 29.8 1009 10 16.0934 0 0
1:15 pm 13:15 Cloudy 63 17 50 10 64 64 WNW 3 6 29.8 1009 10 16.0934 0 0
1:35 pm 13:35 Cloudy 61 16 50 10 68 68 WNW 3 6 29.77 1008 10 16.0934 0 0
1:55 pm 13:55 Cloudy 61 16 52 11 72 72 W 5 7 29.77 1008 10 16.0934 0 0
2:15 pm 14:15 Cloudy 63 17 52 11 68 68 W 8 13 29.77 1008 10 16.0934 0 0
2:35 pm 14:35 Cloudy 63 17 52 11 68 68 W 5 7 29.77 1008 10 16.0934 0 0
2:55 pm 14:55 Cloudy 63 17 50 10 64 64 NNW 6 9 29.77 1008 10 16.0934 0 0
3:15 pm 15:15 Mostly Cloudy 64 18 52 11 64 64 WNW 5 7 29.74 1007 10 16.0934 0 0
3:35 pm 15:35 Cloudy 64 18 50 10 60 60 Calm 29.74 1007 10 16.0934 0 0
3:55 pm 15:55 Cloudy 66 19 52 11 60 60 Calm 29.74 1007 10 16.0934 0 0
4:15 pm 16:15 Mostly Cloudy 66 19 52 11 60 60 ENE 6 9 29.74 1007 10 16.0934 0 0
4:35 pm 16:35 Partly Cloudy 64 18 52 11 64 64 E 5 7 29.74 1007 10 16.0934 0 0
4:55 pm 16:55 Sunny 66 19 50 10 56 56 S 6 9 29.74 1007 10 16.0934 0 0
5:15 pm 17:15 Sunny 66 19 52 11 60 60 S 7 11 29.74 1007 10 16.0934 0 0
5:35 pm 17:35 Sunny 66 19 50 10 56 56 S 5 7 29.74 1007 10 16.0934 0 0
5:55 pm 17:55 Sunny 66 19 50 10 56 56 SSE 5 7 29.74 1007 10 16.0934 0 0
6:15 pm 18:15 Sunny 66 19 50 10 56 56 Calm 29.74 1007 10 16.0934 0 0
6:30 pm 18:30 Sunny 64 18 50 10 60 60 Calm 29.74 1007 10 16.0934 0 0
6:55 pm 18:55 Partly Cloudy 64 18 52 11 64 64 S 5 7 29.74 1007 10 16.0934 0 0
7:15 pm 19:15 Partly Cloudy 64 18 52 11 64 64 SSE 5 7 29.74 1007 10 16.0934 0 0
7:35 pm 19:35 Partly Cloudy 64 18 52 11 64 64 SSE 5 7 29.74 1007 10 16.0934 0 0
7:55 pm 19:55 Partly Cloudy 63 17 52 11 68 68 SE 3 6 29.74 1007 10 16.0934 0 0
8:10 pm 20:10 Partly Cloudy 63 17 50 10 64 64 SSE 3 6 29.74 1007 10 16.0934 0 0
8:35 pm 20:35 Mostly Cloudy 63 17 52 11 68 68 SSE 3 6 29.74 1007 10 16.0934 0 0
8:55 pm 20:55 Cloudy 63 17 52 11 68 68 SSE 5 7 29.74 1007 10 16.0934 0 0
9:15 pm 21:15 Cloudy 61 16 52 11 72 72 SE 5 7 29.74 1007 10 16.0934 0 0
9:35 pm 21:35 Mostly Cloudy 61 16 52 11 72 72 S 7 11 29.74 1007 10 16.0934 0 0
9:55 pm 21:55 Mostly Cloudy 61 16 52 11 72 72 S 6 9 29.74 1007 10 16.0934 0 0
10:15 pm 22:15 Cloudy with Rain 61 16 55 13 83 83 S 6 9 29.74 1007 10 16.0934 0 0
10:35 pm 22:35 Cloudy 59 15 55 13 88 88 S 7 11 29.74 1007 10 16.0934 0 0
10:55 pm 22:55 Cloudy 59 15 55 13 88 88 S 8 13 29.74 1007 10 16.0934 0 0
11:15 pm 23:15 Cloudy 59 15 54 12 82 82 S 8 13 29.74 1007 10 16.0934 0 0
11:35 pm 23:35 Cloudy 59 15 55 13 88 88 S 7 11 29.74 1007 10 16.0934 0 0
11:55 pm 23:55 Cloudy 59 15 55 13 88 88 S 6 9 29.74 1007 10 16.0934 0 0

Powered by AerisWeather